Borger, TX

5:16 AM CDT on July 24, 2017 (GMT -0500)
Hutchinson County

Weather History for KBGD - April, 2013

Change the Weather History Date:

Wednesday, April 3, 2013

  Actual Average Record
Temperature  
Mean Temperature 35 °F 55 °F  
Max Temperature 38 °F 69 °F 92 °F (2011)
Min Temperature 32 °F 41 °F 22 °F (1975)
Degree Days  
Heating Degree Days 30 10  
Month to date heating degree days 76 32  
Since 1 July heating degree days 3256 3509  
Cooling Degree Days 0 0  
Month to date cooling degree days 0 0  
Year to date cooling degree days 0 7  
Moisture  
Dew Point 31 °F    
Average Humidity 86    
Maximum Humidity 96    
Minimum Humidity 76    
Precipitation  
Precipitation 0.01 in 0.06 in 1.61 in (1997)
Month to date precipitation 0.01 0.17  
Year to date precipitation 3.35 2.79  
Snow  
Snow T in - 2.10 in (1979)
Month to date snowfall T  
Since 1 July snowfall 27.5  
Snow Depth 0.00 in    
Sea Level Pressure  
Sea Level Pressure 30.20 in    
Wind  
Wind Speed 9 mph (NNE)    
Max Wind Speed 17 mph    
Max Gust Speed 23 mph    
Visibility 6 miles    
Events Rain , Snow    
T = Trace of Precipitation, MM = Missing Value Source: NWS Daily Summary

Daily Weather History Graph

Daily Weather History Graph

Search for Another Location

Airport or City:

Trip Planner

Search our weather history database for the weather conditions in past years. The results will help you decide how hot, cold, wet, or windy it might be!

Date:

Astronomy

Apr. 03, 2013 Rise Set
Actual Time 7:28 AM CDT 8:09 PM CDT
Civil Twilight 7:03 AM CDT 8:34 PM CDT
Nautical Twilight 6:32 AM CDT 9:05 PM CDT
Astronomical Twilight 6:01 AM CDT 9:36 PM CDT
Moon 2:58 AM CDT (4/3) 1:35 PM CDT (4/3)
Length of Visible Light 13h 31m
Length of Day
12h 40m
Last Quarter, 44% of the Moon is Illuminated
Apr 3
Last Quarter
Apr 10
New
Apr 18
First Quarter
Apr 25
Full
May 2
Last Quarter

Hourly Weather History & Observations

Time (CDT) Temp. Windchill Dew Point Humidity Pressure Visibility Wind Dir Wind Speed Gust Speed Precip Events Conditions
12:06 AM 33.8 °F 25.8 °F 32.0 °F 93% 30.20 in 2.5 mi North 10.4 mph - N/A   Overcast
12:25 AM 33.8 °F 24.8 °F 32.0 °F 93% 30.18 in 2.0 mi NNE 12.7 mph - 0.00 in   Overcast
12:37 AM 33.8 °F 25.3 °F 30.2 °F 87% 30.18 in 4.0 mi NNE 11.5 mph - 0.00 in   Overcast
12:51 AM 33.1 °F 23.4 °F 30.9 °F 92% 30.21 in 4.0 mi NE 13.8 mph - 0.00 in   Overcast
1:51 AM 32.0 °F 22.5 °F 30.9 °F 96% 30.19 in 6.0 mi NE 12.7 mph - N/A   Overcast
2:11 AM 32.0 °F 24.2 °F 30.2 °F 93% 30.13 in 9.0 mi NE 9.2 mph - N/A   Overcast
2:51 AM 32.0 °F 25.6 °F 30.9 °F 96% 30.19 in 7.0 mi NNE 6.9 mph - N/A   Overcast
3:47 AM 32.0 °F 26.4 °F 30.2 °F 93% 30.17 in 10.0 mi NE 5.8 mph - N/A   Overcast
3:51 AM 32.0 °F 25.6 °F 30.0 °F 92% 30.21 in 10.0 mi NNE 6.9 mph - N/A   Overcast
4:51 AM 33.1 °F 23.9 °F 30.0 °F 89% 30.19 in 4.0 mi North 12.7 mph - 0.00 in Rain Light Freezing Rain
5:51 AM 33.1 °F 24.9 °F 30.9 °F 92% 30.20 in 2.5 mi NNE 10.4 mph - 0.00 in Rain Light Freezing Rain
6:04 AM 32.0 °F 23.0 °F 30.2 °F 93% 30.17 in 3.0 mi NNE 11.5 mph - 0.00 in Rain Light Freezing Rain
6:30 AM 32.0 °F 24.8 °F 30.2 °F 93% 30.17 in 3.0 mi NNE 8.1 mph - 0.00 in Rain Light Freezing Rain
6:42 AM 33.8 °F 26.4 °F 30.2 °F 87% 30.16 in 2.5 mi NNE 9.2 mph - 0.00 in Rain Light Freezing Rain
6:51 AM 33.1 °F 25.5 °F 30.9 °F 92% 30.19 in 2.0 mi NNE 9.2 mph - 0.00 in Rain Light Freezing Rain
7:12 AM 33.8 °F 26.4 °F 30.2 °F 87% 30.17 in 3.0 mi NNE 9.2 mph - 0.00 in Rain Light Freezing Rain
7:34 AM 33.8 °F 26.4 °F 30.2 °F 87% 30.17 in 4.0 mi North 9.2 mph - 0.00 in Rain Light Freezing Rain
7:51 AM 33.1 °F 24.9 °F 30.9 °F 92% 30.22 in 3.0 mi North 10.4 mph - 0.00 in Rain Light Freezing Rain
8:10 AM 33.8 °F 24.8 °F 30.2 °F 87% 30.19 in 3.0 mi North 12.7 mph - 0.00 in Rain Light Freezing Rain
8:19 AM 33.8 °F 25.3 °F 30.2 °F 87% 30.19 in 3.0 mi NNE 11.5 mph - 0.00 in Rain Light Rain
8:32 AM 33.8 °F 25.8 °F 30.2 °F 87% 30.20 in 2.5 mi NNE 10.4 mph - 0.00 in Rain Light Rain
8:47 AM 33.8 °F 24.3 °F 30.2 °F 87% 30.20 in 4.0 mi NNE 13.8 mph - 0.00 in Rain Light Rain
8:51 AM 33.1 °F 24.9 °F 30.9 °F 92% 30.24 in 5.0 mi NNE 10.4 mph - 0.00 in Rain Light Rain
9:12 AM 33.8 °F 24.8 °F 30.2 °F 87% 30.20 in 5.0 mi NNE 12.7 mph - 0.00 in Rain Light Rain
10:51 AM 33.1 °F 24.4 °F 30.0 °F 89% 30.25 in 10.0 mi NNE 11.5 mph - 0.00 in   Overcast
11:51 AM 34.0 °F 24.2 °F 30.9 °F 89% 30.25 in 3.0 mi NNE 15.0 mph - 0.00 in Snow Light Snow
12:22 PM 33.8 °F 24.8 °F 30.2 °F 87% 30.22 in 4.0 mi NE 12.7 mph - 0.00 in Snow Light Snow
12:31 PM 33.8 °F 24.8 °F 30.2 °F 87% 30.22 in 2.0 mi NE 12.7 mph - 0.00 in Snow Light Snow
12:51 PM 34.0 °F 26.6 °F 32.0 °F 92% 30.26 in 3.0 mi NNE 9.2 mph - 0.00 in Snow Light Snow
1:04 PM 33.8 °F 25.3 °F 32.0 °F 93% 30.22 in 1.8 mi NNE 11.5 mph - 0.00 in Snow Light Snow
1:41 PM 35.6 °F 27.1 °F 32.0 °F 87% 30.20 in 3.0 mi NNE 12.7 mph - 0.01 in Snow Light Snow
1:51 PM 35.1 °F 25.9 °F 32.0 °F 89% 30.24 in 3.0 mi NNE 13.8 mph - 0.01 in Snow Light Snow
2:51 PM 37.0 °F 30.4 °F 33.1 °F 86% 30.23 in 10.0 mi NNE 9.2 mph - 0.00 in   Overcast
3:51 PM 37.0 °F 29.3 °F 32.0 °F 82% 30.22 in 10.0 mi NNE 11.5 mph - N/A   Overcast
4:51 PM 37.9 °F 31.5 °F 32.0 °F 79% 30.20 in 10.0 mi NNE 9.2 mph - N/A   Overcast
5:51 PM 37.9 °F 31.5 °F 32.0 °F 79% 30.20 in 10.0 mi NNE 9.2 mph - N/A   Overcast
6:51 PM 37.0 °F 29.8 °F 30.9 °F 79% 30.19 in 10.0 mi NNE 10.4 mph - N/A   Overcast
7:51 PM 37.0 °F 31.6 °F 30.9 °F 79% 30.22 in 10.0 mi NE 6.9 mph - N/A   Overcast
8:51 PM 36.0 °F 31.1 °F 30.9 °F 82% 30.22 in 10.0 mi NE 5.8 mph - N/A   Overcast
10:51 PM 35.1 °F 31.0 °F 30.0 °F 82% 30.26 in 10.0 mi NNE 4.6 mph - N/A   Overcast
11:12 PM 35.6 °F 30.7 °F 30.2 °F 81% 30.22 in 10.0 mi NE 5.8 mph - N/A   Overcast
11:31 PM 35.6 °F 30.7 °F 30.2 °F 81% 30.22 in 10.0 mi NE 5.8 mph - N/A   Overcast
11:51 PM 35.1 °F 31.0 °F 30.0 °F 82% 30.25 in 10.0 mi ENE 4.6 mph - N/A   Overcast